Temperature
6 7 6 5 5 4 4 4 4 6 7 8 9 8 9 9 8 8 7 7 6 6 5 4 4 4 4 3 3 3 3 3 3 2 2 2 2 2 2 2 2 2 2 3
5 6 6 6 6 5 5 5 5 5 6 8 8 9 8 8 8 7 7 6 6 5 4 4 4 3 3 3 3 3 2 2 2 2 2 2 2 2 2 2 2 2 2 2
5 6 5 5 6 6 5 5 5 5 6 7 7 7 7 7 7 6 6 5 5 4 4 3 3 3 3 3 2 2 2 2 2 2 1 1 1 2 2 2 2 2 2 2
4 4 4 7 8 7 7 6 6 6 6 7 7 7 7 7 6 6 5 5 4 4 3 3 3 2 2 2 2 1 1 1 1 1 1 1 1 1 1 1 1 1 1 2
4 4 5 7 7 7 6 5 7 6 6 6 7 6 6 6 6 5 5 4 4 3 3 2 2 2 2 2 1 1 1 1 1 1 1 1 1 1 1 1 1 1 1 2
4 4 4 7 7 7 6 4 6 6 6 6 5 3 4 5 5 4 4 3 3 3 2 2 2 1 1 1 1 1 1 1 1 1 1 1 1 1 1 1 1 1 1 1
3 4 5 7 6 6 4 5 7 7 6 6 4 4 4 4 4 4 3 3 2 2 2 1 1 1 1 1 1 0 0 0 0 0 1 0 0 1 1 1 1 1 1 1
3 3 4 5 4 4 5 6 6 6 6 5 5 4 4 4 3 3 2 2 2 1 1 1 1 1 0 0 0 0 0 0 0 0 0 -0 0 0 0 0 0 1 1 1
4 5 6 5 5 5 6 5 5 5 5 4 4 3 3 3 2 2 2 1 1 1 1 1 0 0 -0 0 0 -0 -0 -0 -0 -0 -0 -0 -0 -0 -0 -0 -0 0 0 0
3 4 5 5 6 5 5 5 5 4 4 3 3 2 2 2 1 1 1 1 1 0 0 0 0 -0 -0 -0 -0 -1 -1 -1 -1 -1 -1 -1 -1 -1 -1 -1 -1 -0 -0 -0
2 3 4 5 5 5 5 4 4 4 3 3 2 2 1 1 1 1 0 0 -0 -0 -0 -0 -0 -1 -1 -1 -1 -1 -1 -1 -1 -1 -1 -1 -1 -1 -1 -1 -1 -1 -1 -1
3 4 4 4 5 4 4 3 3 3 2 2 1 1 1 1 0 0 -0 -0 -1 -1 -1 -1 -1 -1 -1 -1 -2 -2 -2 -2 -2 -2 -2 -2 -2 -1 -1 -1 -1 -1 -1 -1
4 5 4 4 4 4 3 3 2 2 2 1 1 1 0 0 -0 -0 -1 -1 -1 -1 -1 -1 -2 -2 -2 -2 -2 -2 -2 -2 -2 -2 -2 -2 -2 -2 -2 -1 -1 -1 -1 -1
4 4 3 3 3 3 2 2 2 1 1 1 0 0 -0 -1 -1 -1 -1 -2 -2 -2 -2 -2 -2 -2 -2 -2 -2 -2 -2 -2 -3 -3 -3 -2 -2 -2 -2 -2 -2 -2 -1 -1
3 3 2 2 2 2 1 1 1 0 0 -0 -0 -1 -1 -1 -2 -2 -2 -2 -2 -2 -2 -3 -3 -2 -2 -3 -3 -3 -3 -3 -3 -3 -3 -3 -2 -2 -2 -2 -3 -3 -2 -2
2 2 1 1 1 1 0 -0 -0 -1 -1 -1 -1 -2 -2 -2 -2 -2 -2 -3 -3 -3 -3 -3 -3 -3 -3 -3 -3 -3 -3 -3 -3 -3 -3 -3 -3 -3 -3 -3 -3 -3 -3 -2
0 -0 -0 -0 -1 -1 -1 -1 -1 -1 -2 -2 -2 -2 -3 -3 -3 -3 -3 -3 -4 -4 -4 -4 -3 -3 -3 -3 -3 -3 -3 -3 -3 -3 -3 -3 -3 -3 -3 -3 -3 -3 -3 -2
-0 -0 -1 -1 -1 -2 -2 -2 -2 -2 -3 -3 -3 -3 -3 -4 -4 -4 -4 -4 -4 -4 -4 -4 -4 -4 -3 -3 -4 -4 -4 -4 -4 -4 -3 -3 -3 -3 -3 -3 -3 -3 -3 -2
-1 -1 -1 -2 -2 -2 -2 -3 -3 -3 -3 -3 -4 -4 -4 -4 -4 -4 -4 -4 -4 -4 -4 -4 -4 -4 -4 -4 -4 -4 -4 -4 -4 -4 -3 -3 -3 -3 -3 -3 -3 -3 -2 -2
-2 -2 -2 -2 -2 -3 -3 -3 -4 -4 -4 -4 -4 -4 -4 -5 -5 -5 -5 -5 -5 -5 -5 -5 -4 -4 -4 -4 -4 -4 -4 -4 -4 -4 -4 -3 -3 -3 -3 -3 -3 -3 -3 -2
-3 -3 -3 -3 -3 -3 -4 -4 -4 -4 -4 -5 -5 -5 -5 -5 -5 -5 -5 -5 -5 -5 -5 -5 -5 -5 -5 -5 -5 -5 -5 -4 -4 -4 -4 -4 -4 -4 -3 -3 -3 -3 -3 -3
-4 -4 -4 -4 -4 -4 -4 -4 -5 -5 -5 -5 -5 -5 -5 -5 -6 -6 -6 -6 -6 -6 -6 -5 -5 -5 -5 -5 -5 -5 -5 -5 -5 -4 -4 -4 -4 -4 -4 -3 -3 -3 -3 -3
-5 -5 -5 -5 -5 -5 -5 -5 -5 -5 -5 -6 -6 -6 -6 -6 -6 -6 -6 -6 -6 -6 -6 -6 -6 -6 -6 -5 -5 -5 -5 -5 -5 -5 -5 -4 -4 -4 -4 -4 -3 -3 -3 -3
-5 -5 -5 -5 -5 -5 -5 -6 -6 -6 -6 -6 -6 -6 -7 -7 -7 -7 -7 -7 -7 -6 -6 -6 -6 -6 -6 -6 -6 -6 -5 -5 -5 -5 -5 -5 -4 -4 -4 -4 -3 -3 -3 -3
-6 -6 -6 -6 -6 -6 -6 -6 -6 -6 -6 -6 -7 -7 -7 -7 -7 -7 -7 -7 -7 -7 -7 -6 -6 -6 -6 -6 -6 -6 -6 -6 -5 -5 -5 -5 -5 -4 -4 -4 -3 -3 -3 -3
-6 -6 -6 -7 -7 -7 -7 -7 -7 -7 -7 -7 -7 -7 -7 -7 -7 -7 -7 -7 -7 -7 -7 -7 -7 -7 -7 -6 -6 -6 -6 -6 -6 -5 -5 -5 -5 -4 -4 -4 -4 -3 -3 -3
-7 -7 -7 -7 -7 -7 -7 -7 -8 -8 -8 -8 -8 -8 -8 -8 -8 -8 -8 -8 -8 -8 -8 -7 -7 -7 -7 -7 -7 -6 -6 -6 -6 -5 -5 -5 -5 -4 -4 -4 -4 -4 -4 -3
Wind_Speed
9 8 6 9 10 12 14 13 11 11 15 16 10 8 7 6 6 7 6 6 7 7 7 8 8 8 8 8 8 8 8 9 9 9 9 8 8 8 7 7 8 7 8 9
7 10 10 13 13 15 17 16 19 19 21 15 11 9 8 7 7 8 7 7 8 8 8 9 9 9 9 8 8 8 8 9 9 8 8 8 8 8 7 7 6 6 7 7
6 5 6 12 14 16 13 13 13 19 18 11 9 8 7 7 7 7 8 8 8 8 8 9 9 8 8 8 8 8 8 9 9 8 8 8 8 8 7 6 6 7 6 7
4 3 10 9 6 12 15 16 16 14 11 8 8 6 6 6 6 7 7 7 7 7 8 8 8 8 8 7 7 7 8 8 8 8 8 8 7 8 7 6 6 6 6 6
4 6 10 8 6 7 9 11 13 14 12 9 6 6 7 5 4 6 6 6 6 7 8 8 8 8 7 7 7 7 8 9 9 9 9 8 8 8 6 6 6 6 6 6
6 6 8 6 3 4 3 8 5 7 8 5 2 4 6 5 6 6 6 6 6 7 7 7 8 7 7 8 7 8 8 9 9 8 8 8 8 7 6 6 6 6 6 6
11 9 9 4 4 7 4 7 1 2 3 2 3 5 4 6 6 6 6 7 7 7 7 7 7 7 7 8 8 8 8 8 9 8 8 8 7 6 6 6 5 5 6 5
8 10 10 4 6 7 5 2 2 1 1 1 3 4 5 6 6 7 6 7 7 7 7 7 6 6 7 8 8 8 8 8 9 8 8 8 7 6 5 5 5 5 5 5
9 9 2 6 4 3 1 2 2 2 2 3 4 5 6 6 7 7 7 7 7 7 7 7 6 6 8 8 8 8 8 9 8 9 8 7 7 6 6 5 4 5 4 5
4 6 4 3 3 3 2 2 2 2 2 3 4 6 6 6 6 7 7 7 7 7 7 7 7 6 7 8 8 8 8 8 8 8 8 7 6 5 5 5 4 4 5 5
7 6 5 5 4 2 2 1 2 3 3 3 4 6 6 6 6 6 7 6 6 7 7 8 7 7 7 7 7 8 8 8 7 7 7 6 6 6 6 5 6 5 4 4
8 5 4 4 2 2 2 3 3 3 4 4 4 5 6 6 6 5 6 6 7 7 7 7 7 7 7 7 7 7 8 7 6 6 6 5 6 7 8 8 10 10 8 7
5 3 3 3 2 2 2 2 2 3 4 4 4 4 5 5 5 5 6 7 7 7 7 7 7 7 8 7 7 7 7 7 6 6 6 5 5 6 7 8 9 9 8 8
3 3 4 4 3 2 2 2 2 2 2 3 3 4 4 5 5 6 6 6 6 7 8 8 7 8 8 7 7 7 7 8 7 6 5 5 5 5 5 6 7 6 6 7
3 3 4 3 2 2 1 1 1 2 3 3 3 4 4 5 6 6 6 6 7 7 8 8 8 9 8 7 7 7 7 6 6 5 5 5 5 5 5 5 5 5 5 5
2 2 1 2 2 1 1 1 1 3 3 3 3 4 4 5 5 6 6 6 6 7 8 8 9 9 8 8 8 7 6 9 8 6 5 5 5 5 5 4 5 5 5 5
2 3 2 2 2 1 1 1 1 2 2 3 4 4 4 5 6 6 7 6 6 6 7 7 9 9 8 8 7 6 6 7 9 7 5 5 5 5 4 4 4 4 4 5
2 3 2 2 1 1 1 2 2 2 2 3 4 4 4 4 5 7 7 7 7 7 7 7 8 9 8 7 7 6 5 5 5 5 5 4 5 4 4 4 4 5 4 4
1 1 2 2 1 1 1 2 2 3 3 3 3 4 4 4 5 6 7 7 8 9 9 8 12 9 8 8 9 5 5 5 6 5 4 6 6 4 4 4 4 4 4 3
4 4 4 4 4 3 2 2 2 3 3 3 3 4 5 5 6 6 6 6 6 6 7 9 9 7 7 8 10 5 5 5 6 6 5 4 4 4 4 4 4 4 3 3
4 4 4 4 4 3 3 3 2 3 3 3 4 4 5 6 6 6 6 7 7 7 8 11 8 6 7 8 9 6 6 5 5 5 5 4 4 4 4 3 3 3 3 2
3 4 4 3 3 3 4 3 3 3 4 4 4 4 5 6 7 6 5 5 7 11 8 6 6 9 10 11 6 6 6 5 5 5 4 4 4 4 3 3 3 3 2 2
3 3 3 3 3 3 4 4 3 3 3 4 5 5 6 6 6 6 7 6 6 10 8 6 10 13 13 8 5 5 5 5 5 4 4 4 4 3 3 3 2 2 2 1
3 3 3 3 3 3 3 4 4 4 4 4 4 5 5 6 6 5 5 9 12 12 7 9 14 14 12 6 5 5 5 5 4 4 4 4 4 3 3 3 2 2 1 1
3 3 3 3 3 3 3 4 4 4 4 4 5 5 4 4 5 6 6 7 11 11 7 10 13 13 8 5 5 5 4 4 4 4 4 4 3 3 3 2 2 2 1 1
3 2 2 2 2 2 3 3 3 4 4 5 5 5 5 5 5 6 6 7 8 10 8 6 7 8 6 5 5 5 4 5 5 4 4 4 4 3 3 2 2 2 1 0
3 3 2 3 3 3 3 3 4 4 5 5 6 6 6 6 6 6 6 6 6 6 6 6 6 5 5 5 5 5 4 4 4 4 3 3 3 3 2 3 2 1 0 1
Wind_Direction
257 264 237 231 225 211 215 221 231 250 257 266 277 293 301 304 308 310 311 315 314 312 309 308 309 306 302 300 299 298 295 292 288 287 286 286 290 289 282 277 276 273 272 266
255 244 250 254 237 225 227 232 242 258 268 268 285 299 301 302 305 304 307 310 314 314 312 310 308 305 303 301 302 301 298 295 295 296 293 291 293 295 284 276 277 279 273 267
248 239 271 255 232 223 223 223 226 244 254 275 285 286 290 298 296 297 302 308 312 313 310 309 308 305 303 304 307 306 302 302 299 297 296 292 292 293 282 277 277 276 274 271
254 245 241 243 198 210 227 237 229 240 258 268 272 281 287 285 290 301 308 313 316 317 313 310 306 307 306 308 309 305 304 306 305 304 301 297 295 290 279 278 275 274 275 275
221 243 266 265 229 205 216 251 232 239 256 268 283 300 289 278 296 303 312 315 312 309 307 309 309 309 312 310 309 306 306 306 307 305 305 302 300 295 286 280 277 273 272 273
218 233 241 249 172 143 156 266 243 225 244 258 278 289 289 325 328 318 318 319 317 317 314 312 309 313 315 309 310 305 305 305 305 305 305 303 302 299 290 281 281 280 275 270
226 238 255 251 144 123 183 249 290 203 228 232 233 245 281 320 323 320 318 318 320 317 313 306 309 315 311 307 309 308 307 309 311 310 307 304 301 296 289 291 286 285 287 288
210 229 243 170 149 183 215 1 27 28 17 327 303 312 318 319 318 319 318 316 317 318 312 312 315 317 311 307 308 313 313 309 309 310 309 306 302 304 301 302 296 289 295 302
205 221 234 159 191 228 344 323 329 355 346 334 318 312 313 316 318 318 317 317 318 314 308 311 313 314 310 310 313 313 315 314 310 309 310 310 311 311 310 304 299 297 295 295
249 250 249 228 242 251 259 263 283 300 309 303 293 298 301 305 309 313 314 314 315 314 310 310 313 312 309 314 318 318 318 317 314 314 315 318 318 312 308 306 301 296 296 295
254 270 274 249 240 245 272 306 310 304 292 290 291 291 292 298 301 304 308 312 317 315 308 309 314 315 317 320 323 321 317 317 318 319 318 322 322 315 307 300 293 290 290 290
240 224 226 254 251 263 268 275 282 291 295 292 284 289 299 300 302 307 313 318 319 316 311 312 316 318 320 322 321 318 317 317 318 318 318 319 321 322 319 310 314 308 299 296
261 284 268 282 291 257 247 265 277 277 277 286 292 295 301 303 309 316 318 319 318 318 316 313 316 317 319 321 320 317 315 314 314 313 312 314 315 315 319 327 327 319 313 311
269 285 279 274 277 280 272 276 280 281 293 304 308 311 310 310 315 318 317 318 320 321 321 322 321 318 319 322 322 318 315 312 310 306 306 306 307 307 308 313 321 328 329 323
258 255 253 264 269 283 282 286 309 309 321 321 320 318 317 315 314 315 320 324 324 323 323 325 323 320 325 328 325 320 316 314 310 308 307 306 306 306 307 309 311 314 323 332
274 286 272 267 269 281 309 305 293 298 311 315 321 320 321 319 316 317 321 326 325 321 320 322 320 320 325 326 324 321 318 314 315 313 312 313 312 309 309 310 312 311 313 316
214 241 252 265 276 294 311 316 305 305 320 319 318 322 326 324 323 322 323 325 321 315 318 319 316 318 323 325 322 318 316 317 318 317 317 314 312 310 308 308 308 308 305 306
219 229 221 218 229 270 336 355 352 346 334 325 329 328 323 319 314 313 317 323 323 320 320 319 319 321 324 326 323 316 316 317 318 315 314 313 312 310 308 306 305 304 307 316
70 65 69 64 64 79 48 18 6 358 355 349 335 321 316 318 315 315 320 324 323 318 319 322 323 327 324 322 321 313 314 315 315 313 311 310 311 311 310 309 307 308 312 319
63 59 59 55 54 56 45 27 16 6 357 349 336 329 324 319 318 316 315 311 305 300 307 315 319 320 318 316 318 314 314 313 312 312 311 309 309 311 311 310 310 311 313 318
71 64 59 55 48 42 36 25 14 358 350 346 333 321 314 314 316 316 314 311 310 313 317 319 322 318 317 316 315 316 314 312 310 309 309 308 309 312 313 313 313 313 316 326
69 66 57 50 44 26 15 13 6 355 347 339 333 326 322 320 319 314 300 293 304 317 322 316 316 316 321 319 318 319 316 312 310 311 310 310 311 312 313 313 311 311 317 327
65 61 52 43 33 11 1 2 356 350 339 331 326 321 316 310 310 311 311 313 316 318 321 312 315 319 322 324 321 320 317 315 312 311 310 311 312 310 308 306 304 307 316 336
54 47 40 32 28 19 360 346 345 340 328 319 315 311 309 312 313 306 298 312 320 320 318 316 321 324 326 327 322 320 318 315 312 311 311 311 311 311 311 312 312 319 322 327
50 43 35 27 18 1 346 339 338 333 331 325 317 314 311 307 305 310 314 314 317 321 318 319 325 327 328 322 321 318 314 309 308 308 307 308 309 310 310 311 312 311 315 321
38 29 13 3 352 340 336 338 337 334 333 328 325 324 324 321 315 314 314 314 315 319 320 317 320 323 323 321 320 321 318 314 313 314 311 310 309 306 304 305 302 300 293 293
29 25 17 7 359 353 346 340 333 329 329 324 320 322 325 324 321 320 319 319 320 319 319 319 320 320 320 321 320 319 316 314 312 310 309 307 305 302 302 299 298 290 243 148
Height
1453 1450 1453 1456 1457 1460 1462 1459 1458 1443 1435 1427 1426 1426 1424 1423 1421 1420 1418 1417 1415 1413 1410 1406 1403 1400 1396 1392 1389 1385 1381 1377 1374 1371 1367 1364 1361 1359 1357 1354 1353 1351 1348 1347
1452 1447 1447 1447 1445 1448 1449 1448 1444 1439 1431 1423 1423 1422 1421 1419 1418 1417 1415 1413 1411 1408 1405 1401 1398 1394 1390 1387 1383 1380 1376 1372 1368 1365 1361 1358 1356 1353 1351 1349 1347 1345 1343 1342
1450 1444 1446 1442 1432 1434 1435 1432 1434 1432 1423 1419 1420 1419 1418 1416 1415 1414 1412 1409 1407 1404 1401 1397 1393 1390 1386 1382 1379 1375 1371 1367 1363 1360 1357 1354 1351 1349 1347 1345 1343 1341 1339 1338
1449 1448 1447 1423 1416 1418 1421 1420 1421 1418 1415 1416 1416 1415 1414 1413 1412 1410 1408 1405 1402 1399 1396 1392 1388 1385 1381 1378 1374 1371 1367 1363 1360 1356 1353 1349 1347 1345 1343 1341 1339 1337 1335 1334
1446 1443 1431 1417 1413 1413 1417 1415 1410 1411 1410 1411 1412 1411 1409 1409 1408 1406 1404 1402 1398 1395 1391 1387 1384 1381 1377 1373 1370 1367 1363 1360 1356 1353 1349 1346 1343 1340 1338 1336 1334 1333 1331 1330
1440 1438 1430 1411 1407 1407 1413 1415 1404 1405 1406 1407 1409 1412 1407 1405 1404 1402 1400 1397 1394 1390 1386 1383 1380 1377 1373 1370 1366 1363 1360 1357 1353 1350 1347 1343 1340 1337 1335 1333 1331 1329 1327 1326
1433 1430 1418 1407 1406 1408 1418 1411 1402 1401 1402 1404 1406 1407 1405 1403 1401 1399 1396 1393 1389 1386 1382 1379 1377 1373 1370 1366 1363 1360 1357 1353 1350 1347 1343 1340 1337 1334 1332 1330 1328 1326 1324 1322
1426 1425 1415 1404 1406 1408 1406 1402 1401 1401 1402 1403 1403 1403 1402 1400 1398 1395 1392 1389 1386 1382 1379 1376 1373 1370 1367 1363 1361 1357 1353 1349 1346 1343 1340 1337 1334 1331 1329 1327 1324 1323 1321 1319
1409 1405 1399 1399 1399 1399 1400 1401 1400 1400 1401 1401 1401 1400 1398 1396 1394 1392 1389 1386 1382 1379 1375 1372 1370 1367 1364 1360 1357 1354 1350 1346 1343 1339 1337 1334 1331 1328 1326 1324 1322 1320 1318 1316
1403 1397 1396 1397 1396 1397 1398 1399 1399 1399 1399 1399 1398 1397 1395 1393 1391 1388 1385 1382 1379 1375 1371 1368 1366 1364 1361 1358 1354 1351 1347 1343 1340 1336 1333 1331 1328 1326 1324 1321 1320 1318 1316 1314
1399 1396 1394 1393 1394 1394 1395 1395 1395 1396 1395 1395 1394 1393 1391 1389 1386 1384 1381 1378 1375 1372 1368 1365 1363 1360 1358 1355 1352 1348 1344 1340 1337 1334 1331 1328 1326 1324 1322 1320 1319 1316 1314 1312
1392 1390 1391 1390 1391 1392 1392 1392 1392 1392 1391 1391 1391 1389 1387 1385 1383 1381 1378 1375 1371 1368 1365 1362 1360 1357 1354 1352 1349 1345 1341 1338 1335 1332 1329 1326 1323 1321 1319 1318 1316 1314 1312 1311
1386 1386 1386 1386 1387 1388 1388 1388 1388 1388 1388 1387 1386 1385 1383 1381 1379 1377 1374 1371 1368 1365 1362 1359 1356 1354 1351 1349 1346 1343 1339 1336 1333 1330 1327 1325 1322 1319 1316 1314 1313 1311 1310 1309
1383 1384 1383 1383 1384 1384 1384 1384 1384 1384 1384 1383 1382 1381 1380 1378 1375 1373 1371 1368 1365 1362 1359 1356 1353 1351 1349 1346 1343 1340 1336 1333 1331 1328 1326 1323 1321 1318 1316 1313 1310 1308 1308 1307
1380 1380 1380 1380 1380 1381 1381 1380 1380 1380 1380 1379 1378 1377 1376 1374 1372 1370 1368 1365 1362 1359 1356 1354 1351 1348 1346 1343 1340 1337 1333 1330 1328 1325 1323 1321 1319 1317 1314 1312 1310 1308 1306 1305
1376 1376 1377 1377 1377 1377 1377 1377 1377 1376 1376 1375 1374 1373 1372 1371 1369 1366 1364 1362 1359 1356 1354 1351 1348 1346 1343 1340 1337 1334 1331 1328 1326 1323 1321 1319 1317 1315 1313 1311 1309 1307 1305 1304
1372 1373 1373 1373 1374 1374 1374 1374 1374 1373 1373 1372 1371 1370 1369 1367 1365 1363 1361 1359 1357 1355 1352 1349 1346 1343 1340 1338 1335 1331 1328 1326 1323 1321 1319 1317 1315 1313 1311 1309 1308 1306 1305 1304
1369 1369 1370 1371 1371 1371 1371 1371 1371 1371 1370 1369 1368 1367 1366 1364 1362 1360 1358 1356 1353 1351 1349 1346 1344 1341 1338 1335 1332 1329 1327 1324 1322 1319 1317 1315 1313 1311 1310 1308 1307 1305 1304 1304
1366 1367 1368 1368 1369 1369 1369 1369 1369 1368 1367 1367 1366 1365 1364 1362 1361 1358 1356 1353 1350 1347 1345 1343 1341 1338 1335 1332 1330 1327 1325 1322 1320 1318 1316 1314 1312 1310 1309 1307 1306 1305 1304 1304
1364 1365 1366 1366 1367 1367 1367 1367 1366 1366 1365 1365 1364 1362 1361 1360 1358 1356 1353 1351 1349 1346 1343 1340 1338 1335 1332 1330 1328 1325 1323 1320 1318 1316 1314 1313 1311 1309 1308 1306 1305 1304 1304 1303
1364 1364 1365 1365 1366 1366 1366 1365 1365 1364 1363 1363 1362 1360 1359 1357 1355 1353 1350 1347 1345 1344 1341 1338 1335 1333 1330 1328 1325 1323 1321 1319 1316 1314 1313 1311 1309 1308 1306 1305 1304 1304 1303 1303
1363 1364 1364 1365 1365 1365 1365 1364 1364 1363 1362 1361 1360 1358 1356 1354 1352 1350 1348 1345 1342 1340 1338 1335 1333 1330 1328 1325 1323 1321 1319 1317 1315 1313 1311 1310 1308 1306 1305 1304 1304 1303 1303 1303
1363 1364 1364 1364 1364 1364 1364 1363 1362 1361 1360 1359 1357 1356 1354 1352 1350 1347 1344 1342 1340 1338 1335 1333 1330 1328 1326 1323 1321 1318 1316 1314 1313 1311 1310 1308 1307 1306 1304 1304 1303 1303 1303 1303
1363 1363 1363 1363 1363 1363 1362 1361 1361 1360 1358 1357 1355 1354 1352 1349 1347 1345 1342 1340 1337 1335 1332 1330 1328 1325 1323 1321 1318 1316 1314 1312 1311 1309 1308 1307 1305 1304 1303 1303 1303 1302 1303 1303
1363 1363 1363 1363 1362 1362 1361 1360 1359 1358 1356 1355 1353 1351 1349 1347 1345 1342 1339 1337 1334 1332 1329 1327 1325 1323 1320 1318 1316 1314 1312 1310 1309 1307 1306 1305 1304 1303 1302 1302 1302 1302 1302 1303
1363 1363 1363 1363 1362 1361 1360 1359 1357 1356 1354 1352 1350 1349 1347 1344 1342 1339 1336 1334 1331 1329 1326 1324 1322 1319 1317 1315 1313 1311 1310 1308 1306 1305 1304 1303 1303 1302 1302 1301 1301 1302 1302 1303
1363 1363 1362 1362 1361 1360 1359 1357 1356 1354 1352 1350 1348 1346 1344 1341 1339 1336 1334 1331 1329 1326 1324 1322 1319 1317 1315 1313 1311 1309 1307 1306 1304 1303 1302 1302 1301 1301 1301 1300 1300 1301 1302 1302